Location: Asheville, NC
(35.6000°N, 82.5500°W)
Time: 20:44:15
(UTC-04:00)

Vanguard 2 - Pass Details

Date: 14 December 2017
Orbit: 553 x 2939 km, 32.9° (Epoch: 22 June)

Event Time Altitude Azimuth Distance (km) Brightness Sun altitude
Rises 20:42:19 0° 269° (W) 2,849 11.3 -40.6°
Enters shadow 20:44:14 - 259° (W) 2,141 10.5 -41.0°
Reaches altitude 10° 20:45:10 10° 251° (WSW) 1,840 - -41.2°
Maximum altitude 20:48:01 19° 205° (SSW) 1,349 - -41.7°
Drops below altitude 10° 20:50:55 10° 158° (SSE) 1,877 - -42.3°
Sets 20:53:53 0° 140° (SE) 2,929 - -42.9°
